This demonstration page uses our WeatherBlox Daily Observations layout. Learn more.

Left ArrowRight Arrow

39.92423, -83.80882

Hourly Observations for January 31, 2021

Temp ( °F °C ) Dew Point ( °F °C ) Humidity (%) Winds ( mph kmh ) Pressure ( in mb ) Visibility ( mi km ) Precip ( " mm )
12:00 am 00:00 Cloudy with Light Snow 28 -2 28 -2 100 100 E 17 28 30.02 1017 3 4.82802 0.001 0.001
12:56 am 00:56 Windy with Snow Likely 28 -2.2 28 -2.2 100 100 ESE 20 31 29.96 1015 9 14.48406 0.001 0.001
1:44 am 01:44 Cloudy with Light Snow 28 -2 28 -2 100 100 ESE 17 28 29.97 1015 2.5 4.02335 0.001 0.001
1:56 am 01:56 Cloudy with Light Snow 29 -1.7 29 -1.7 100 100 ESE 16 26 29.94 1014 1.5 2.41401 0.001 0.001
2:21 am 02:21 Cloudy with Light Snow 28 -2 28 -2 100 100 ESE 15 24 29.95 1014 2 3.21868 0.001 0.001
2:28 am 02:28 Cloudy with Light Snow 28 -2 28 -2 100 100 ESE 16 26 29.95 1014 1.25 2.011675 0.001 0.001
2:56 am 02:56 Cloudy with Light Snow 30 -1.1 30 -1.1 100 100 ESE 16 26 29.91 1013 2 3.21868 0.001 0.001
3:17 am 03:17 Cloudy with Light Snow 30 -1 30 -1 100 100 E 14 22 29.92 1013 3 4.82802 0.001 0.001
3:27 am 03:27 Cloudy with Light Snow 30 -1 30 -1 100 100 ESE 18 30 29.91 1013 2.5 4.02335 0.001 0.001
3:40 am 03:40 Cloudy with Light Snow 30 -1 30 -1 100 100 ESE 17 28 29.9 1012 3 4.82802 0.001 0.001
3:56 am 03:56 Windy with Snow Likely 31 -0.6 31 -0.6 100 100 ESE 21 33 29.87 1011 3 4.82802 0.001 0.001
4:56 am 04:56 Cloudy with Light Snow 31 -0.6 31 -0.6 100 100 ESE 17 28 29.84 1011 6 9.65604 0.001 0.001
5:03 am 05:03 Cloudy with Light Freezing Rain 30 -1 30 -1 100 100 ESE 15 24 29.87 1011 8 12.87472 0.001 0.001
5:18 am 05:18 Cloudy with Light Wintry Mix 32 0 32 0 100 100 ESE 15 24 29.85 1011 10 16.0934 0.001 0.001
5:56 am 05:56 Cloudy with Light Wintry Mix 32 0 32 0 100 100 ESE 18 30 29.82 1010 10 16.0934 0.001 0.001
6:56 am 06:56 Cloudy with Light Wintry Mix 33 0.6 33 0.6 100 100 E 16 26 29.81 1009 10 16.0934 0.001 0.001
7:56 am 07:56 Cloudy with Light Rain 33 0.6 33 0.6 100 100 E 16 26 29.8 1009 8 12.87472 0.001 0.001
8:56 am 08:56 Cloudy with Light Snow 33 0.6 33 0.6 100 100 E 15 24 29.78 1009 7 11.26538 0.001 0.001
9:56 am 09:56 Cloudy with Light Rain 33 0.6 33 0.6 100 100 E 17 28 29.77 1008 9 14.48406 0.001 0.001
10:56 am 10:56 Cloudy with Light Rain 34 1.1 34 1.1 100 100 E 15 24 29.77 1008 10 16.0934 0.001 0.001
11:56 am 11:56 Cloudy with Light Rain 34 1.1 34 1.1 100 100 E 14 22 29.76 1008 10 16.0934 0.001 0.001
12:56 pm 12:56 Cloudy with Light Rain 34 1.1 34 1.1 100 100 E 13 20 29.74 1007 10 16.0934 0.001 0.001
1:56 pm 13:56 Cloudy with Light Rain 34 1.1 34 1.1 100 100 E 10 17 29.72 1007 10 16.0934 0.001 0.001
2:56 pm 14:56 Cloudy with Light Rain 35 1.7 35 1.7 100 100 ENE 9 15 29.72 1007 9 14.48406 0.001 0.001
3:56 pm 15:56 Cloudy with Light Rain 34 1.1 34 1.1 100 100 NE 9 15 29.74 1007 7 11.26538 0.001 0.001
4:56 pm 16:56 Cloudy with Light Snow 33 0.6 33 0.6 100 100 NNE 10 17 29.75 1007 4 6.43736 0.001 0.001
5:54 pm 17:54 Cloudy with Light Snow 34 1 34 1 100 100 NNE 13 20 29.78 1008 2.5 4.02335 0.001 0.001
5:56 pm 17:56 Cloudy with Light Snow 33 0.6 33 0.6 100 100 NNE 10 17 29.77 1008 2.5 4.02335 0.001 0.001
6:27 pm 18:27 Cloudy with Light Snow 32 0 32 0 100 100 NNE 12 19 29.8 1009 3 4.82802 0.001 0.001
6:56 pm 18:56 Cloudy with Light Snow 32 0 32 0 100 100 NNE 9 15 29.78 1009 4 6.43736 0.001 0.001
7:56 pm 19:56 Cloudy with Light Snow 32 0 32 0 100 100 NNE 10 17 29.8 1009 4 6.43736 0.001 0.001
8:56 pm 20:56 Cloudy with Light Snow 32 0 32 0 100 100 NNE 9 15 29.81 1009 4 6.43736 0.001 0.001
9:56 pm 21:56 Cloudy with Light Snow 31 -0.6 31 -0.6 100 100 N 10 17 29.81 1010 4 6.43736 0.001 0.001
11:29 pm 23:29 Cloudy with Light Snow 30 -1 30 -1 100 100 N 14 22 29.86 1011 2 3.21868 0.001 0.001
11:56 pm 23:56 Cloudy with Light Snow 31 -0.6 31 -0.6 100 100 N 14 22 29.83 1010 3 4.82802 0.001 0.001

Powered by AerisWeather